Location: Unspecified
(51.5147°N, 7.4673°E)
Time: 17:06:00
(UTC+01:00)

Vanguard 1 - Pass Details

Date: 24 February 2026
Orbit: 653 x 3818 km, 34.2° (Epoch: 5 March)

Event Time Altitude Azimuth Distance (km) Brightness Sun altitude
Rises 18:13:11 0° 260° (W) 5,084 17.4 -2.6°
Reaches altitude 10° 18:16:24 10° 251° (WSW) 4,467 15.4 -3.1°
Maximum altitude 18:27:47 35° 193° (SSW) 3,947 13.4 -4.8°
Drops below altitude 10° 18:45:02 10° 138° (SE) 6,713 14.0 -7.5°
Sets 18:51:26 0° 131° (SE) 7,912 14.3 -8.5°
